TimeEST,TemperatureF,Dew PointF,Humidity,Sea Level PressureIn,VisibilityMPH,Wind Direction,Wind SpeedMPH,Gust SpeedMPH,PrecipitationIn,Events,Conditions,WindDirDegrees,DateUTC
12:53 AM,70.0,64.0,81,30.05,10.0,North,4.6,-,N/A,,Mostly Cloudy,350,2012-11-17 05:53:00
1:53 AM,69.1,64.9,87,30.04,10.0,NNW,5.8,-,N/A,,Mostly Cloudy,330,2012-11-17 06:53:00
2:53 AM,68.0,64.9,90,30.03,10.0,NNW,5.8,-,N/A,,Scattered Clouds,340,2012-11-17 07:53:00
3:53 AM,66.9,64.9,93,30.02,10.0,NW,3.5,-,N/A,,Scattered Clouds,320,2012-11-17 08:53:00
4:53 AM,66.9,64.0,90,30.04,10.0,NNW,6.9,-,N/A,,Scattered Clouds,340,2012-11-17 09:53:00
5:53 AM,66.9,64.0,90,30.06,10.0,NNW,4.6,-,N/A,,Scattered Clouds,340,2012-11-17 10:53:00
6:53 AM,68.0,64.0,87,30.08,10.0,NNE,4.6,-,N/A,,Mostly Cloudy,30,2012-11-17 11:53:00
7:53 AM,70.0,66.0,87,30.09,10.0,Variable,3.5,-,N/A,,Mostly Cloudy,0,2012-11-17 12:53:00
8:53 AM,72.0,64.9,78,30.10,10.0,NNE,6.9,-,N/A,,Scattered Clouds,20,2012-11-17 13:53:00
9:53 AM,73.9,63.0,68,30.10,10.0,NE,6.9,-,N/A,,Scattered Clouds,50,2012-11-17 14:53:00
10:53 AM,79.0,64.9,62,30.10,10.0,NE,12.7,18.4,N/A,,Scattered Clouds,50,2012-11-17 15:53:00
11:53 AM,79.0,64.9,62,30.08,10.0,ENE,8.1,-,0.00,,Scattered Clouds,60,2012-11-17 16:53:00
12:53 PM,79.0,63.0,58,30.05,10.0,NE,10.4,-,N/A,,Scattered Clouds,50,2012-11-17 17:53:00
1:53 PM,80.1,62.1,54,30.04,10.0,Variable,5.8,-,N/A,,Scattered Clouds,0,2012-11-17 18:53:00
2:53 PM,79.0,62.1,56,30.03,10.0,ENE,5.8,-,N/A,,Scattered Clouds,60,2012-11-17 19:53:00
3:53 PM,78.1,64.0,62,30.04,10.0,NE,12.7,17.3,N/A,,Mostly Cloudy,50,2012-11-17 20:53:00
4:53 PM,75.9,62.1,62,30.04,10.0,NE,9.2,-,N/A,,Scattered Clouds,40,2012-11-17 21:53:00
5:53 PM,75.0,63.0,66,30.05,10.0,NE,5.8,-,N/A,,Mostly Cloudy,50,2012-11-17 22:53:00
6:53 PM,75.0,62.1,64,30.05,10.0,NNE,4.6,-,N/A,,Mostly Cloudy,30,2012-11-17 23:53:00
7:53 PM,73.9,63.0,68,30.06,10.0,NE,4.6,-,N/A,,Mostly Cloudy,40,2012-11-18 00:53:00
8:53 PM,75.0,63.0,66,30.06,10.0,North,3.5,-,0.00,Rain,Light Rain,360,2012-11-18 01:53:00
9:53 PM,75.0,63.0,66,30.07,10.0,NE,4.6,-,0.00,,Mostly Cloudy,40,2012-11-18 02:53:00
10:53 PM,75.0,62.1,64,30.07,10.0,NE,4.6,-,N/A,,Mostly Cloudy,40,2012-11-18 03:53:00
11:53 PM,72.0,63.0,73,30.06,10.0,NNW,3.5,-,N/A,,Mostly Cloudy,330,2012-11-18 04:53:00